Location: Nashville
(36.1660°N, 86.7840°W)
Time: 06:41:54
(UTC-05:00)

AO-109 - Pass Details

Date: 24 May 2022
Orbit: 477 x 502 km, 60.7° (Epoch: 27 June)

Event Time Altitude Azimuth Distance (km) Brightness Sun altitude
Rises 00:35:05 0° 332° (NNW) 2,600 ? -33.0°
Reaches altitude 10° 00:37:23 10° 342° (NNW) 1,715 ? -33.0°
Enters shadow 00:38:14 15° 348° (NNW) 1,415 ? -33.0°
